Date String (YYYY-MM-DD hh:mm:ss) UTC,Instrument flags,Ambient pressure (hPa),Sample flow (lpm),Bypass flow (lpm),Sample temperature (°C),Ambient temperature (°C),ASC tube jacket temperature (°C),LED temperature (°C),Box temperature (°C),Sample RH (%),Span deviation,Mass concentration (μg/m³),Mass concentration (μg/m³),Mass concentration (μg/m³)
DateTimeUTC,F1_M11,P_M11,Q1_M11,Q2_M11,T1_M11,T2_M11,T3_M11,T4_M11,T5_M11,U1_M11,ZSPAN_M11,X0_M11,X2_M11,X1_M11
2021-10-19 19:00:00,,0821.4,5.00,0.00,29.6,28.8,00.0,38.7,31.4,13.8,0000.0,0010.91,0003.22,0001.71
2021-10-19 19:01:00,,0821.4,5.00,0.00,29.6,28.8,00.0,38.7,31.4,13.6,0000.0,0010.42,0003.17,0001.70
2021-10-19 19:02:00,,0821.3,5.00,0.00,29.6,28.8,00.0,38.7,31.4,13.6,0000.0,0010.54,0003.15,0001.69
2021-10-19 19:03:00,,0821.4,5.01,0.00,29.6,28.8,00.0,38.7,31.4,13.6,0000.0,0009.50,0003.13,0001.68
2021-10-19 19:04:00,,0821.4,5.01,0.00,29.6,28.8,00.0,38.7,31.4,13.6,0000.0,0010.23,0003.17,0001.68
2021-10-19 19:05:00,,0821.4,5.00,0.00,29.6,28.8,00.0,38.7,31.4,13.2,0000.0,0009.80,0003.17,0001.68
2021-10-19 19:06:00,,0821.4,4.99,0.00,29.6,28.8,00.0,38.7,31.4,13.2,0000.0,0009.16,0003.13,0001.66
2021-10-19 19:07:00,,0821.5,5.01,0.00,29.6,28.8,00.0,38.7,31.4,13.1,0000.0,0008.91,0003.10,0001.66
2021-10-19 19:08:00,,0821.5,4.99,0.00,29.6,28.8,00.0,38.7,31.4,13.0,0000.0,0008.89,0003.04,0001.64
2021-10-19 19:09:00,,0821.5,5.01,0.00,29.6,28.8,00.0,38.7,31.3,13.1,0000.0,0008.81,0002.97,0001.63
2021-10-19 19:10:00,,0821.5,4.99,0.00,29.6,28.8,00.0,38.7,31.3,13.2,0000.0,0008.60,0002.92,0001.63
2021-10-19 19:11:00,,0821.6,5.00,0.00,29.6,28.8,00.0,38.7,31.3,13.1,0000.0,0008.27,0002.92,0001.64
2021-10-19 19:12:00,,0821.6,5.00,0.00,29.6,28.8,00.0,38.7,31.3,13.2,0000.0,0008.04,0002.96,0001.65
2021-10-19 19:13:00,,0821.5,5.01,0.00,29.6,28.7,00.0,38.7,31.3,13.2,0000.0,0009.05,0002.95,0001.65
2021-10-19 19:14:00,,0821.5,5.00,0.00,29.6,28.7,00.0,38.7,31.3,13.2,0000.0,0009.24,0002.97,0001.65
2021-10-19 19:15:00,,0821.4,5.01,0.00,29.6,28.8,00.0,38.7,31.3,13.2,0000.0,0008.74,0002.89,0001.64
2021-10-19 19:16:00,,0821.4,5.00,0.00,29.6,28.7,00.0,38.7,31.3,13.1,0000.0,0008.86,0002.89,0001.64
2021-10-19 19:17:00,,0821.5,4.99,0.00,29.6,28.7,00.0,38.7,31.3,12.3,0000.0,0009.21,0002.95,0001.65
2021-10-19 19:18:00,,0821.4,5.00,0.00,29.6,28.7,00.0,38.7,31.3,12.3,0000.0,0009.26,0002.96,0001.65
2021-10-19 19:19:00,,0821.5,5.00,0.00,29.6,28.7,00.0,38.7,31.3,12.6,0000.0,0009.14,0002.95,0001.65
2021-10-19 19:20:00,,0821.5,5.00,0.00,29.6,28.7,00.0,38.7,31.3,12.7,0000.0,0008.79,0002.94,0001.66
2021-10-19 19:21:00,,0821.5,5.00,0.00,29.5,28.7,00.0,38.7,31.3,12.8,0000.0,0008.77,0002.93,0001.66
2021-10-19 19:22:00,,0821.4,5.00,0.00,29.5,28.7,00.0,38.7,31.2,13.1,0000.0,0008.88,0002.96,0001.66
2021-10-19 19:23:00,,0821.4,5.02,0.00,29.5,28.7,00.0,38.7,31.2,13.1,0000.0,0008.88,0002.94,0001.65
2021-10-19 19:24:00,,0821.4,4.99,0.00,29.5,28.7,00.0,38.7,31.3,13.1,0000.0,0008.24,0002.96,0001.64
2021-10-19 19:25:00,,0821.4,5.00,0.00,29.5,28.7,00.0,38.7,31.3,13.0,0000.0,0008.14,0003.01,0001.65
2021-10-19 19:26:00,,0821.4,5.01,0.00,29.5,28.8,00.0,38.7,31.2,12.9,0000.0,0008.27,0002.99,0001.65
2021-10-19 19:27:00,,0821.4,5.00,0.00,29.6,28.8,00.0,38.7,31.3,12.7,0000.0,0007.94,0002.97,0001.64
2021-10-19 19:28:00,,0821.5,5.00,0.00,29.6,28.8,00.0,38.7,31.3,12.9,0000.0,0007.69,0002.94,0001.63
2021-10-19 19:29:00,,0821.4,4.99,0.00,29.6,28.8,00.0,38.7,31.3,13.0,0000.0,0007.77,0002.88,0001.62
2021-10-19 19:30:00,,0821.4,5.01,0.00,29.6,28.8,00.0,38.7,31.3,13.0,0000.0,0008.39,0002.84,0001.61
2021-10-19 19:31:00,,0821.5,5.00,0.00,29.6,28.8,00.0,38.7,31.3,13.0,0000.0,0008.50,0002.85,0001.59
2021-10-19 19:32:00,,0821.5,4.99,0.00,29.6,28.8,00.0,38.7,31.3,13.1,0000.0,0008.96,0002.85,0001.58
2021-10-19 19:33:00,,0821.4,5.00,0.00,29.6,28.8,00.0,38.7,31.3,13.2,0000.0,0009.07,0002.87,0001.58
2021-10-19 19:34:00,,0821.5,5.01,0.00,29.5,28.8,00.0,38.7,31.3,13.2,0000.0,0009.22,0002.90,0001.59
2021-10-19 19:35:00,,0821.4,5.00,0.00,29.5,28.7,00.0,38.7,31.2,13.2,0000.0,0008.97,0002.89,0001.58
2021-10-19 19:36:00,,0821.5,5.01,0.00,29.5,28.7,00.0,38.7,31.2,13.0,0000.0,0008.82,0002.82,0001.56
2021-10-19 19:37:00,,0821.5,4.99,0.00,29.5,28.7,00.0,38.6,31.2,12.9,0000.0,0008.92,0002.78,0001.54
2021-10-19 19:38:00,,0821.5,4.99,0.00,29.5,28.7,00.0,38.6,31.2,12.7,0000.0,0009.09,0002.67,0001.52
2021-10-19 19:39:00,,0821.5,5.00,0.00,29.4,28.7,00.0,38.6,31.1,12.7,0000.0,0009.36,0002.67,0001.53
2021-10-19 19:40:00,,0821.6,5.00,0.00,29.4,28.7,00.0,38.6,31.1,12.6,0000.0,0009.36,0002.71,0001.54
2021-10-19 19:41:00,,0821.6,5.01,0.00,29.4,28.7,00.0,38.6,31.1,12.5,0000.0,0009.46,0002.74,0001.55
2021-10-19 19:42:00,,0821.5,4.99,0.00,29.4,28.6,00.0,38.6,31.1,12.6,0000.0,0009.55,0002.69,0001.57
2021-10-19 19:43:00,,0821.5,4.99,0.00,29.4,28.6,00.0,38.6,31.1,12.7,0000.0,0009.15,0002.70,0001.58
2021-10-19 19:44:00,,0821.5,5.00,0.00,29.4,28.7,00.0,38.6,31.2,12.8,0000.0,0008.97,0002.63,0001.58
2021-10-19 19:45:00,,0821.4,5.01,0.00,29.4,28.7,00.0,38.6,31.2,12.7,0000.0,0008.81,0002.59,0001.57
2021-10-19 19:46:00,,0821.4,5.01,0.00,29.4,28.7,00.0,38.6,31.2,12.6,0000.0,0009.14,0002.59,0001.57
2021-10-19 19:47:00,,0821.4,5.00,0.00,29.4,28.7,00.0,38.6,31.2,12.6,0000.0,0009.81,0002.56,0001.57
2021-10-19 19:48:00,,0821.4,4.99,0.00,29.4,28.7,00.0,38.6,31.2,12.8,0000.0,0009.59,0002.59,0001.56
2021-10-19 19:49:00,,0821.4,5.01,0.00,29.5,28.7,00.0,38.6,31.2,12.8,0000.0,0009.33,0002.64,0001.57
2021-10-19 19:50:00,,0821.4,5.00,0.00,29.4,28.7,00.0,38.6,31.2,12.8,0000.0,0009.06,0002.66,0001.56
2021-10-19 19:51:00,,0821.4,5.00,0.00,29.4,28.7,00.0,38.6,31.2,13.0,0000.0,0008.84,0002.59,0001.55
2021-10-19 19:52:00,,0821.4,5.01,0.00,29.4,28.7,00.0,38.6,31.2,12.9,0000.0,0008.15,0002.57,0001.53
2021-10-19 19:53:00,,0821.5,5.00,0.00,29.4,28.7,00.0,38.6,31.2,12.9,0000.0,0008.09,0002.63,0001.51
2021-10-19 19:54:00,,0821.5,4.99,0.00,29.5,28.7,00.0,38.6,31.2,12.7,0000.0,0008.09,0002.60,0001.48
2021-10-19 19:55:00,,0821.5,5.00,0.00,29.5,28.7,00.0,38.6,31.2,12.7,0000.0,0008.01,0002.56,0001.45
2021-10-19 19:56:00,,0821.5,5.00,0.00,29.5,28.7,00.0,38.6,31.2,12.8,0000.0,0007.99,0002.60,0001.45
2021-10-19 19:57:00,,0821.5,5.01,0.00,29.5,28.7,00.0,38.6,31.2,12.8,0000.0,0008.10,0002.59,0001.45
2021-10-19 19:58:00,,0821.4,5.00,0.00,29.5,28.7,00.0,38.6,31.3,12.8,0000.0,0008.45,0002.61,0001.45
2021-10-19 19:59:00,,0821.5,5.01,0.00,29.5,28.7,00.0,38.6,31.2,13.0,0000.0,0008.86,0002.64,0001.44
